Location: *
(43.9900°N, 3.4811°E)
Time: 10:31:44
(UTC+00:00)

Cosmos 2150 Rocket - Pass Details

Date: 25 August 2019
Orbit: 748 x 808 km, 74.0° (Epoch: 18 September)

Event Time Altitude Azimuth Distance (km) Brightness Sun altitude
Exits shadow 20:49:29 37° 184° (S) 1,158 4.6 -22.0°
Maximum altitude 20:51:32 74° 108° (ESE) 787 3.8 -22.3°
Drops below altitude 10° 20:56:44 10° 24° (NNE) 2,305 6.7 -23.0°
Sets 20:59:08 0° 23° (NNE) 3,244 7.5 -23.3°
